owner,sensor,date,latitude,longitude,air_pressure(mBar),qcFlag 
TABS,ioos:station:wmo:42043:1,2016-09-01T00:00:00Z,28.9818,-94.9186,1010.3,11111222 
TABS,ioos:station:wmo:42043:1,2016-09-01T00:30:00Z,28.9818,-94.9186,1010.53,11111222 
TABS,ioos:station:wmo:42043:1,2016-09-01T01:00:00Z,28.9818,-94.9186,1011.03,11111222 
TABS,ioos:station:wmo:42043:1,2016-09-01T01:30:00Z,28.9818,-94.9186,1011.39,11111222 
TABS,ioos:station:wmo:42043:1,2016-09-01T02:00:00Z,28.9818,-94.9186,1011.72,11111222 
TABS,ioos:station:wmo:42043:1,2016-09-01T02:30:00Z,28.9818,-94.9186,1012.06,11111222 
TABS,ioos:station:wmo:42043:1,2016-09-01T03:00:00Z,28.9818,-94.9186,1012.42,11111222 
TABS,ioos:station:wmo:42043:1,2016-09-01T03:30:00Z,28.9818,-94.9186,1012.35,11111222 
TABS,ioos:station:wmo:42043:1,2016-09-01T04:00:00Z,28.9818,-94.9186,1012.59,11111222 
TABS,ioos:station:wmo:42043:1,2016-09-01T04:30:00Z,28.9818,-94.9186,1012.32,11111222 
TABS,ioos:station:wmo:42043:1,2016-09-01T05:00:00Z,28.9818,-94.9186,1012.38,11111222 
TABS,ioos:station:wmo:42043:1,2016-09-01T05:30:00Z,28.9818,-94.9186,1012.31,11111222 
TABS,ioos:station:wmo:42043:1,2016-09-01T06:00:00Z,28.9818,-94.9186,1012.06,11111222 
TABS,ioos:station:wmo:42043:1,2016-09-01T06:30:00Z,28.9818,-94.9186,1011.87,11111222 
TABS,ioos:station:wmo:42043:1,2016-09-01T07:00:00Z,28.9818,-94.9186,1011.71,11111222 
TABS,ioos:station:wmo:42043:1,2016-09-01T07:30:00Z,28.9818,-94.9186,1011.59,11111222 
TABS,ioos:station:wmo:42043:1,2016-09-01T08:00:00Z,28.9818,-94.9186,1011.42,11111222 
TABS,ioos:station:wmo:42043:1,2016-09-01T08:30:00Z,28.9818,-94.9186,1011.19,11111222 
TABS,ioos:station:wmo:42043:1,2016-09-01T09:00:00Z,28.9818,-94.9186,1011.04,11111222 
TABS,ioos:station:wmo:42043:1,2016-09-01T09:30:00Z,28.9818,-94.9186,1010.77,11111222 
TABS,ioos:station:wmo:42043:1,2016-09-01T10:00:00Z,28.9818,-94.9186,1010.66,11111222 
TABS,ioos:station:wmo:42043:1,2016-09-01T10:30:00Z,28.9818,-94.9186,1010.65,11111222 
TABS,ioos:station:wmo:42043:1,2016-09-01T11:00:00Z,28.9818,-94.9186,1010.79,11111222 
TABS,ioos:station:wmo:42043:1,2016-09-01T11:30:00Z,28.9818,-94.9186,1011.14,11111222 
TABS,ioos:station:wmo:42043:1,2016-09-01T12:00:00Z,28.9818,-94.9186,1011.44,11111222 
TABS,ioos:station:wmo:42043:1,2016-09-01T12:30:00Z,28.9818,-94.9186,1011.53,11111222 
TABS,ioos:station:wmo:42043:1,2016-09-01T13:00:00Z,28.9818,-94.9186,1011.8,11111222 
TABS,ioos:station:wmo:42043:1,2016-09-01T13:30:00Z,28.9818,-94.9186,1011.92,11111222 
TABS,ioos:station:wmo:42043:1,2016-09-01T14:00:00Z,28.9818,-94.9186,1012.12,11111222 
TABS,ioos:station:wmo:42043:1,2016-09-01T14:30:00Z,28.9818,-94.9186,1012.23,11111222 
TABS,ioos:station:wmo:42043:1,2016-09-01T15:00:00Z,28.9818,-94.9186,1012.65,11111222 
TABS,ioos:station:wmo:42043:1,2016-09-01T15:30:00Z,28.9818,-94.9186,1012.79,11111222 
TABS,ioos:station:wmo:42043:1,2016-09-01T16:00:00Z,28.9818,-94.9186,1012.88,11111222 
TABS,ioos:station:wmo:42043:1,2016-09-01T16:30:00Z,28.9818,-94.9186,1012.85,11111222 
TABS,ioos:station:wmo:42043:1,2016-09-01T17:00:00Z,28.9818,-94.9186,1012.51,11111222 
TABS,ioos:station:wmo:42043:1,2016-09-01T17:30:00Z,28.9818,-94.9186,1012.33,11111222 
TABS,ioos:station:wmo:42043:1,2016-09-01T18:00:00Z,28.9818,-94.9186,1012.12,11111222 
TABS,ioos:station:wmo:42043:1,2016-09-01T18:30:00Z,28.9818,-94.9186,1011.85,11111222 
TABS,ioos:station:wmo:42043:1,2016-09-01T19:00:00Z,28.9818,-94.9186,1011.66,11111222 
TABS,ioos:station:wmo:42043:1,2016-09-01T19:30:00Z,28.9818,-94.9186,1011.2,11111222 
TABS,ioos:station:wmo:42043:1,2016-09-01T20:00:00Z,28.9818,-94.9186,1010.84,11111222 
TABS,ioos:station:wmo:42043:1,2016-09-01T20:30:00Z,28.9818,-94.9186,1010.63,11111222 
TABS,ioos:station:wmo:42043:1,2016-09-01T21:00:00Z,28.9818,-94.9186,1010.28,11111222 
TABS,ioos:station:wmo:42043:1,2016-09-01T21:30:00Z,28.9818,-94.9186,1010.06,11111222 
TABS,ioos:station:wmo:42043:1,2016-09-01T22:00:00Z,28.9818,-94.9186,1010.15,11111222 
TABS,ioos:station:wmo:42043:1,2016-09-01T22:30:00Z,28.9818,-94.9186,1010.24,11111222 
TABS,ioos:station:wmo:42043:1,2016-09-01T23:00:00Z,28.9818,-94.9186,1010.4,11111222 
TABS,ioos:station:wmo:42043:1,2016-09-01T23:30:00Z,28.9818,-94.9186,1010.35,11111222 
TABS,ioos:station:wmo:42043:1,2016-09-02T00:00:00Z,28.9818,-94.9186,1010.4,11111222 
TABS,ioos:station:wmo:42043:1,2016-09-02T00:30:00Z,28.9818,-94.9186,1010.48,11111222 
TABS,ioos:station:wmo:42043:1,2016-09-02T01:00:00Z,28.9818,-94.9186,1010.62,11111222 
TABS,ioos:station:wmo:42043:1,2016-09-02T01:30:00Z,28.9818,-94.9186,1011.13,11111222 
TABS,ioos:station:wmo:42043:1,2016-09-02T02:00:00Z,28.9818,-94.9186,1011.32,11111222 
TABS,ioos:station:wmo:42043:1,2016-09-02T02:30:00Z,28.9818,-94.9186,1011.59,11111222 
TABS,ioos:station:wmo:42043:1,2016-09-02T03:00:00Z,28.9818,-94.9186,1011.97,11111222 
TABS,ioos:station:wmo:42043:1,2016-09-02T03:30:00Z,28.9818,-94.9186,1012.0,11111222 
TABS,ioos:station:wmo:42043:1,2016-09-02T04:00:00Z,28.9818,-94.9186,1012.02,11111222 
TABS,ioos:station:wmo:42043:1,2016-09-02T04:30:00Z,28.9818,-94.9186,1011.86,11111222 
TABS,ioos:station:wmo:42043:1,2016-09-02T05:00:00Z,28.9818,-94.9186,1012.02,11111222 
TABS,ioos:station:wmo:42043:1,2016-09-02T05:30:00Z,28.9818,-94.9186,1011.96,11111222 
TABS,ioos:station:wmo:42043:1,2016-09-02T06:00:00Z,28.9818,-94.9186,1011.61,11111222 
TABS,ioos:station:wmo:42043:1,2016-09-02T06:30:00Z,28.9818,-94.9186,1011.75,11111222 
TABS,ioos:station:wmo:42043:1,2016-09-02T07:00:00Z,28.9818,-94.9186,1011.71,11111222 
TABS,ioos:station:wmo:42043:1,2016-09-02T07:30:00Z,28.9818,-94.9186,1011.86,11111222 
TABS,ioos:station:wmo:42043:1,2016-09-02T08:00:00Z,28.9818,-94.9186,1012.08,11111222 
TABS,ioos:station:wmo:42043:1,2016-09-02T08:30:00Z,28.9818,-94.9186,1012.27,11111222 
TABS,ioos:station:wmo:42043:1,2016-09-02T09:00:00Z,28.9818,-94.9186,1012.3,11111222 
TABS,ioos:station:wmo:42043:1,2016-09-02T09:30:00Z,28.9818,-94.9186,1012.41,11111222 
TABS,ioos:station:wmo:42043:1,2016-09-02T10:00:00Z,28.9818,-94.9186,1012.48,11111222 
TABS,ioos:station:wmo:42043:1,2016-09-02T10:30:00Z,28.9818,-94.9186,1012.75,11111222 
TABS,ioos:station:wmo:42043:1,2016-09-02T11:00:00Z,28.9818,-94.9186,1013.12,11111222 
TABS,ioos:station:wmo:42043:1,2016-09-02T11:30:00Z,28.9818,-94.9186,1013.21,11111222 
TABS,ioos:station:wmo:42043:1,2016-09-02T12:00:00Z,28.9818,-94.9186,1013.38,11111222 
TABS,ioos:station:wmo:42043:1,2016-09-02T12:30:00Z,28.9818,-94.9186,1013.86,11111222 
TABS,ioos:station:wmo:42043:1,2016-09-02T13:00:00Z,28.9818,-94.9186,1013.7,11111222 
TABS,ioos:station:wmo:42043:1,2016-09-02T13:30:00Z,28.9818,-94.9186,1013.59,11111222 
TABS,ioos:station:wmo:42043:1,2016-09-02T14:00:00Z,28.9818,-94.9186,1013.99,11111222 
TABS,ioos:station:wmo:42043:1,2016-09-02T14:30:00Z,28.9818,-94.9186,1013.84,11111222 
TABS,ioos:station:wmo:42043:1,2016-09-02T15:00:00Z,28.9818,-94.9186,1014.27,11111222 
TABS,ioos:station:wmo:42043:1,2016-09-02T15:30:00Z,28.9818,-94.9186,1014.53,11111222 
TABS,ioos:station:wmo:42043:1,2016-09-02T16:00:00Z,28.9818,-94.9186,1014.39,11111222 
TABS,ioos:station:wmo:42043:1,2016-09-02T16:30:00Z,28.9818,-94.9186,1014.4,11111222 
TABS,ioos:station:wmo:42043:1,2016-09-02T17:00:00Z,28.9818,-94.9186,1014.07,11111222 
TABS,ioos:station:wmo:42043:1,2016-09-02T17:30:00Z,28.9818,-94.9186,1013.98,11111222 
TABS,ioos:station:wmo:42043:1,2016-09-02T18:00:00Z,28.9818,-94.9186,1013.94,11111222 
TABS,ioos:station:wmo:42043:1,2016-09-02T18:30:00Z,28.9818,-94.9186,1013.68,11111222 
TABS,ioos:station:wmo:42043:1,2016-09-02T19:00:00Z,28.9818,-94.9186,1013.51,11111222 
TABS,ioos:station:wmo:42043:1,2016-09-02T19:30:00Z,28.9818,-94.9186,1013.1,11111222 
TABS,ioos:station:wmo:42043:1,2016-09-02T20:00:00Z,28.9818,-94.9186,1012.61,11111222 
TABS,ioos:station:wmo:42043:1,2016-09-02T20:30:00Z,28.9818,-94.9186,1012.42,11111222 
TABS,ioos:station:wmo:42043:1,2016-09-02T21:00:00Z,28.9818,-94.9186,1012.2,11111222 
TABS,ioos:station:wmo:42043:1,2016-09-02T21:30:00Z,28.9818,-94.9186,1012.1,11111222 
TABS,ioos:station:wmo:42043:1,2016-09-02T22:00:00Z,28.9818,-94.9186,1011.86,11111222 
TABS,ioos:station:wmo:42043:1,2016-09-02T22:30:00Z,28.9818,-94.9186,1011.66,11111222 
TABS,ioos:station:wmo:42043:1,2016-09-02T23:00:00Z,28.9818,-94.9186,1011.92,11111222 
TABS,ioos:station:wmo:42043:1,2016-09-02T23:30:00Z,28.9818,-94.9186,1011.97,11111222 
TABS,ioos:station:wmo:42043:1,2016-09-03T00:00:00Z,28.9818,-94.9186,1012.03,11111222 
TABS,ioos:station:wmo:42043:1,2016-09-03T00:30:00Z,28.9818,-94.9186,1012.35,11111222 
TABS,ioos:station:wmo:42043:1,2016-09-03T01:00:00Z,28.9818,-94.9186,1012.36,11111222 
TABS,ioos:station:wmo:42043:1,2016-09-03T01:30:00Z,28.9818,-94.9186,1012.73,11111222 
TABS,ioos:station:wmo:42043:1,2016-09-03T02:00:00Z,28.9818,-94.9186,1013.25,11111222 
TABS,ioos:station:wmo:42043:1,2016-09-03T02:30:00Z,28.9818,-94.9186,1013.82,11111222 
TABS,ioos:station:wmo:42043:1,2016-09-03T03:00:00Z,28.9818,-94.9186,1014.2,11111222 
TABS,ioos:station:wmo:42043:1,2016-09-03T03:30:00Z,28.9818,-94.9186,1013.8,11111222 
TABS,ioos:station:wmo:42043:1,2016-09-03T04:00:00Z,28.9818,-94.9186,1013.78,11111222 
TABS,ioos:station:wmo:42043:1,2016-09-03T04:30:00Z,28.9818,-94.9186,1013.75,11111222 
TABS,ioos:station:wmo:42043:1,2016-09-03T05:00:00Z,28.9818,-94.9186,1013.72,11111222 
TABS,ioos:station:wmo:42043:1,2016-09-03T05:30:00Z,28.9818,-94.9186,1013.53,11111222 
TABS,ioos:station:wmo:42043:1,2016-09-03T06:00:00Z,28.9818,-94.9186,1013.46,11111222 
TABS,ioos:station:wmo:42043:1,2016-09-03T06:30:00Z,28.9818,-94.9186,1013.38,11111222 
TABS,ioos:station:wmo:42043:1,2016-09-03T07:00:00Z,28.9818,-94.9186,1013.39,11111222 
TABS,ioos:station:wmo:42043:1,2016-09-03T07:30:00Z,28.9818,-94.9186,1013.27,11111222 
TABS,ioos:station:wmo:42043:1,2016-09-03T08:00:00Z,28.9818,-94.9186,1013.25,11111222 
TABS,ioos:station:wmo:42043:1,2016-09-03T08:30:00Z,28.9818,-94.9186,1013.19,11111222 
TABS,ioos:station:wmo:42043:1,2016-09-03T09:00:00Z,28.9818,-94.9186,1013.17,11111222 
TABS,ioos:station:wmo:42043:1,2016-09-03T09:30:00Z,28.9818,-94.9186,1013.15,11111222 
TABS,ioos:station:wmo:42043:1,2016-09-03T10:00:00Z,28.9818,-94.9186,1012.98,11111222 
TABS,ioos:station:wmo:42043:1,2016-09-03T10:30:00Z,28.9818,-94.9186,1013.08,11111222 
TABS,ioos:station:wmo:42043:1,2016-09-03T11:00:00Z,28.9818,-94.9186,1013.29,11111222 
TABS,ioos:station:wmo:42043:1,2016-09-03T11:30:00Z,28.9818,-94.9186,1013.31,11111222 
TABS,ioos:station:wmo:42043:1,2016-09-03T12:00:00Z,28.9818,-94.9186,1013.62,11111222 
TABS,ioos:station:wmo:42043:1,2016-09-03T12:30:00Z,28.9818,-94.9186,1013.96,11111222 
TABS,ioos:station:wmo:42043:1,2016-09-03T13:00:00Z,28.9818,-94.9186,1013.93,11111222 
TABS,ioos:station:wmo:42043:1,2016-09-03T13:30:00Z,28.9818,-94.9186,1014.16,11111222 
TABS,ioos:station:wmo:42043:1,2016-09-03T14:00:00Z,28.9818,-94.9186,1014.43,11111222 
TABS,ioos:station:wmo:42043:1,2016-09-03T14:30:00Z,28.9818,-94.9186,1014.48,11111222 
TABS,ioos:station:wmo:42043:1,2016-09-03T15:00:00Z,28.9818,-94.9186,1014.6,11111222 
TABS,ioos:station:wmo:42043:1,2016-09-03T15:30:00Z,28.9818,-94.9186,1014.72,11111222 
TABS,ioos:station:wmo:42043:1,2016-09-03T16:00:00Z,28.9818,-94.9186,1015.05,11111222 
TABS,ioos:station:wmo:42043:1,2016-09-03T16:30:00Z,28.9818,-94.9186,1015.37,11111222 
TABS,ioos:station:wmo:42043:1,2016-09-03T17:00:00Z,28.9818,-94.9186,1015.32,11111222 
TABS,ioos:station:wmo:42043:1,2016-09-03T17:30:00Z,28.9818,-94.9186,1015.16,11111222 
TABS,ioos:station:wmo:42043:1,2016-09-03T18:00:00Z,28.9818,-94.9186,1014.97,11111222 
TABS,ioos:station:wmo:42043:1,2016-09-03T18:30:00Z,28.9818,-94.9186,1014.66,11111222 
TABS,ioos:station:wmo:42043:1,2016-09-03T19:00:00Z,28.9818,-94.9186,1014.3,11111222 
TABS,ioos:station:wmo:42043:1,2016-09-03T19:30:00Z,28.9818,-94.9186,1014.0,11111222 
TABS,ioos:station:wmo:42043:1,2016-09-03T20:00:00Z,28.9818,-94.9186,1013.69,11111222 
TABS,ioos:station:wmo:42043:1,2016-09-03T20:30:00Z,28.9818,-94.9186,1013.07,11111222 
TABS,ioos:station:wmo:42043:1,2016-09-03T21:00:00Z,28.9818,-94.9186,1013.05,11111222 
TABS,ioos:station:wmo:42043:1,2016-09-03T21:30:00Z,28.9818,-94.9186,1013.06,11111222 
TABS,ioos:station:wmo:42043:1,2016-09-03T22:00:00Z,28.9818,-94.9186,1013.12,11111222 
TABS,ioos:station:wmo:42043:1,2016-09-03T22:30:00Z,28.9818,-94.9186,1013.28,11111222 
TABS,ioos:station:wmo:42043:1,2016-09-03T23:00:00Z,28.9818,-94.9186,1013.22,11111222 
TABS,ioos:station:wmo:42043:1,2016-09-03T23:30:00Z,28.9818,-94.9186,1013.36,11111222 
TABS,ioos:station:wmo:42043:1,2016-09-04T00:00:00Z,28.9818,-94.9186,1013.56,11111222 
TABS,ioos:station:wmo:42043:1,2016-09-04T00:30:00Z,28.9818,-94.9186,1013.76,11111222 
TABS,ioos:station:wmo:42043:1,2016-09-04T01:00:00Z,28.9818,-94.9186,1013.92,11111222 
TABS,ioos:station:wmo:42043:1,2016-09-04T01:30:00Z,28.9818,-94.9186,1014.06,11111222 
TABS,ioos:station:wmo:42043:1,2016-09-04T02:00:00Z,28.9818,-94.9186,1014.17,11111222 
TABS,ioos:station:wmo:42043:1,2016-09-04T02:30:00Z,28.9818,-94.9186,1014.17,11111222 
TABS,ioos:station:wmo:42043:1,2016-09-04T03:00:00Z,28.9818,-94.9186,1014.12,11111222 
TABS,ioos:station:wmo:42043:1,2016-09-04T03:30:00Z,28.9818,-94.9186,1014.04,11111222 
TABS,ioos:station:wmo:42043:1,2016-09-04T04:00:00Z,28.9818,-94.9186,1014.18,11111222 
TABS,ioos:station:wmo:42043:1,2016-09-04T04:30:00Z,28.9818,-94.9186,1014.16,11111222 
TABS,ioos:station:wmo:42043:1,2016-09-04T05:00:00Z,28.9818,-94.9186,1013.99,11111222 
TABS,ioos:station:wmo:42043:1,2016-09-04T05:30:00Z,28.9818,-94.9186,1013.54,11111222 
TABS,ioos:station:wmo:42043:1,2016-09-04T06:00:00Z,28.9818,-94.9186,1013.42,11111222 
TABS,ioos:station:wmo:42043:1,2016-09-04T06:30:00Z,28.9818,-94.9186,1013.39,11111222 
TABS,ioos:station:wmo:42043:1,2016-09-04T07:00:00Z,28.9818,-94.9186,1013.32,11111222 
TABS,ioos:station:wmo:42043:1,2016-09-04T07:30:00Z,28.9818,-94.9186,1013.14,11111222 
TABS,ioos:station:wmo:42043:1,2016-09-04T08:00:00Z,28.9818,-94.9186,1012.98,11111222 
TABS,ioos:station:wmo:42043:1,2016-09-04T08:30:00Z,28.9818,-94.9186,1012.91,11111222 
TABS,ioos:station:wmo:42043:1,2016-09-04T09:00:00Z,28.9818,-94.9186,1013.11,11111222 
TABS,ioos:station:wmo:42043:1,2016-09-04T09:30:00Z,28.9818,-94.9186,1013.11,11111222 
TABS,ioos:station:wmo:42043:1,2016-09-04T10:00:00Z,28.9818,-94.9186,1013.09,11111222 
TABS,ioos:station:wmo:42043:1,2016-09-04T10:30:00Z,28.9818,-94.9186,1013.2,11111222 
TABS,ioos:station:wmo:42043:1,2016-09-04T11:00:00Z,28.9818,-94.9186,1013.41,11111222 
TABS,ioos:station:wmo:42043:1,2016-09-04T11:30:00Z,28.9818,-94.9186,1013.59,11111222 
TABS,ioos:station:wmo:42043:1,2016-09-04T12:00:00Z,28.9818,-94.9186,1013.68,11111222 
TABS,ioos:station:wmo:42043:1,2016-09-04T12:30:00Z,28.9818,-94.9186,1014.2,11111222 
TABS,ioos:station:wmo:42043:1,2016-09-04T13:00:00Z,28.9818,-94.9186,1014.75,11111222 
TABS,ioos:station:wmo:42043:1,2016-09-04T13:30:00Z,28.9818,-94.9186,1014.99,11111222 
TABS,ioos:station:wmo:42043:1,2016-09-04T14:00:00Z,28.9818,-94.9186,1014.98,11111222 
TABS,ioos:station:wmo:42043:1,2016-09-04T14:30:00Z,28.9818,-94.9186,1015.19,11111222 
TABS,ioos:station:wmo:42043:1,2016-09-04T15:00:00Z,28.9818,-94.9186,1015.3,11111222 
TABS,ioos:station:wmo:42043:1,2016-09-04T15:30:00Z,28.9818,-94.9186,1015.49,11111222 
TABS,ioos:station:wmo:42043:1,2016-09-04T16:00:00Z,28.9818,-94.9186,1015.83,11111222 
TABS,ioos:station:wmo:42043:1,2016-09-04T16:30:00Z,28.9818,-94.9186,1015.84,11111222 
TABS,ioos:station:wmo:42043:1,2016-09-04T17:00:00Z,28.9818,-94.9186,1015.78,11111222 
TABS,ioos:station:wmo:42043:1,2016-09-04T17:30:00Z,28.9818,-94.9186,1015.52,11111222 
TABS,ioos:station:wmo:42043:1,2016-09-04T18:00:00Z,28.9818,-94.9186,1015.48,11111222 
TABS,ioos:station:wmo:42043:1,2016-09-04T18:30:00Z,28.9818,-94.9186,1015.08,11111222 
TABS,ioos:station:wmo:42043:1,2016-09-04T19:00:00Z,28.9818,-94.9186,1014.8,11111222 
TABS,ioos:station:wmo:42043:1,2016-09-04T19:30:00Z,28.9818,-94.9186,1014.73,11111222 
TABS,ioos:station:wmo:42043:1,2016-09-04T20:00:00Z,28.9818,-94.9186,1014.39,11111222 
TABS,ioos:station:wmo:42043:1,2016-09-04T20:30:00Z,28.9818,-94.9186,1014.52,11111222 
TABS,ioos:station:wmo:42043:1,2016-09-04T21:00:00Z,28.9818,-94.9186,1014.41,11111222 
TABS,ioos:station:wmo:42043:1,2016-09-04T21:30:00Z,28.9818,-94.9186,1014.56,11111222 
TABS,ioos:station:wmo:42043:1,2016-09-04T22:00:00Z,28.9818,-94.9186,1014.55,11111222 
TABS,ioos:station:wmo:42043:1,2016-09-04T22:30:00Z,28.9818,-94.9186,1014.75,11111222 
TABS,ioos:station:wmo:42043:1,2016-09-04T23:00:00Z,28.9818,-94.9186,1014.8,11111222 
TABS,ioos:station:wmo:42043:1,2016-09-04T23:30:00Z,28.9818,-94.9186,1014.79,11111222 
TABS,ioos:station:wmo:42043:1,2016-09-05T00:00:00Z,28.9818,-94.9186,1015.14,11111222 
TABS,ioos:station:wmo:42043:1,2016-09-05T00:30:00Z,28.9818,-94.9186,1015.4,11111222 
TABS,ioos:station:wmo:42043:1,2016-09-05T01:00:00Z,28.9818,-94.9186,1015.2,11111222 
TABS,ioos:station:wmo:42043:1,2016-09-05T01:30:00Z,28.9818,-94.9186,1014.98,11111222 
TABS,ioos:station:wmo:42043:1,2016-09-05T02:00:00Z,28.9818,-94.9186,1015.25,11111222 
TABS,ioos:station:wmo:42043:1,2016-09-05T02:30:00Z,28.9818,-94.9186,1015.49,11111222 
TABS,ioos:station:wmo:42043:1,2016-09-05T03:00:00Z,28.9818,-94.9186,1015.62,11111222 
TABS,ioos:station:wmo:42043:1,2016-09-05T03:30:00Z,28.9818,-94.9186,1015.57,11111222 
TABS,ioos:station:wmo:42043:1,2016-09-05T04:00:00Z,28.9818,-94.9186,1015.54,11111222 
TABS,ioos:station:wmo:42043:1,2016-09-05T04:30:00Z,28.9818,-94.9186,1015.74,11111222 
TABS,ioos:station:wmo:42043:1,2016-09-05T05:00:00Z,28.9818,-94.9186,1015.67,11111222 
TABS,ioos:station:wmo:42043:1,2016-09-05T05:30:00Z,28.9818,-94.9186,1015.81,11111222 
TABS,ioos:station:wmo:42043:1,2016-09-05T06:00:00Z,28.9818,-94.9186,1015.9,11111222 
TABS,ioos:station:wmo:42043:1,2016-09-05T06:30:00Z,28.9818,-94.9186,1015.69,11111222 
TABS,ioos:station:wmo:42043:1,2016-09-05T07:00:00Z,28.9818,-94.9186,1015.64,11111222 
TABS,ioos:station:wmo:42043:1,2016-09-05T07:30:00Z,28.9818,-94.9186,1015.56,11111222 
TABS,ioos:station:wmo:42043:1,2016-09-05T08:00:00Z,28.9818,-94.9186,1015.46,11111222 
TABS,ioos:station:wmo:42043:1,2016-09-05T08:30:00Z,28.9818,-94.9186,1015.74,11111222 
TABS,ioos:station:wmo:42043:1,2016-09-05T09:00:00Z,28.9818,-94.9186,1016.01,11111222 
TABS,ioos:station:wmo:42043:1,2016-09-05T09:30:00Z,28.9818,-94.9186,1015.92,11111222 
TABS,ioos:station:wmo:42043:1,2016-09-05T10:00:00Z,28.9818,-94.9186,1016.06,11111222 
TABS,ioos:station:wmo:42043:1,2016-09-05T10:30:00Z,28.9818,-94.9186,1016.14,11111222 
TABS,ioos:station:wmo:42043:1,2016-09-05T11:00:00Z,28.9818,-94.9186,1016.23,11111222 
TABS,ioos:station:wmo:42043:1,2016-09-05T11:30:00Z,28.9818,-94.9186,1016.4,11111222 
TABS,ioos:station:wmo:42043:1,2016-09-05T12:00:00Z,28.9818,-94.9186,1016.79,11111222 
TABS,ioos:station:wmo:42043:1,2016-09-05T12:30:00Z,28.9818,-94.9186,1017.05,11111222 
TABS,ioos:station:wmo:42043:1,2016-09-05T13:00:00Z,28.9818,-94.9186,1017.28,11111222 
TABS,ioos:station:wmo:42043:1,2016-09-05T13:30:00Z,28.9818,-94.9186,1017.57,11111222 
TABS,ioos:station:wmo:42043:1,2016-09-05T14:00:00Z,28.9818,-94.9186,1017.7,11111222 
TABS,ioos:station:wmo:42043:1,2016-09-05T14:30:00Z,28.9818,-94.9186,1018.16,11111222 
TABS,ioos:station:wmo:42043:1,2016-09-05T15:00:00Z,28.9818,-94.9186,1018.26,11111222 
TABS,ioos:station:wmo:42043:1,2016-09-05T15:30:00Z,28.9818,-94.9186,1018.33,11111222 
TABS,ioos:station:wmo:42043:1,2016-09-05T16:00:00Z,28.9818,-94.9186,1018.48,11111222 
TABS,ioos:station:wmo:42043:1,2016-09-05T16:30:00Z,28.9818,-94.9186,1018.39,11111222 
TABS,ioos:station:wmo:42043:1,2016-09-05T17:00:00Z,28.9818,-94.9186,1018.46,11111222 
TABS,ioos:station:wmo:42043:1,2016-09-05T17:30:00Z,28.9818,-94.9186,1018.33,11111222 
TABS,ioos:station:wmo:42043:1,2016-09-05T18:00:00Z,28.9818,-94.9186,1017.91,11111222 
TABS,ioos:station:wmo:42043:1,2016-09-05T18:30:00Z,28.9818,-94.9186,1017.87,11111222 
TABS,ioos:station:wmo:42043:1,2016-09-05T19:00:00Z,28.9818,-94.9186,1017.69,11111222 
TABS,ioos:station:wmo:42043:1,2016-09-05T23:30:00Z,28.9818,-94.9186,1017.1,11111222 
TABS,ioos:station:wmo:42043:1,2016-09-06T00:00:00Z,28.9818,-94.9186,1017.15,11111222 
TABS,ioos:station:wmo:42043:1,2016-09-06T00:30:00Z,28.9818,-94.9186,1017.28,11111222 
TABS,ioos:station:wmo:42043:1,2016-09-06T01:00:00Z,28.9818,-94.9186,1017.16,11111222 
TABS,ioos:station:wmo:42043:1,2016-09-06T01:30:00Z,28.9818,-94.9186,1017.55,11111222 
TABS,ioos:station:wmo:42043:1,2016-09-06T02:00:00Z,28.9818,-94.9186,1017.89,11111222 
TABS,ioos:station:wmo:42043:1,2016-09-06T02:30:00Z,28.9818,-94.9186,1017.86,11111222 
TABS,ioos:station:wmo:42043:1,2016-09-06T03:00:00Z,28.9818,-94.9186,1017.88,11111222 
TABS,ioos:station:wmo:42043:1,2016-09-06T03:30:00Z,28.9818,-94.9186,1018.24,11111222 
TABS,ioos:station:wmo:42043:1,2016-09-06T04:00:00Z,28.9818,-94.9186,1018.05,11111222 
TABS,ioos:station:wmo:42043:1,2016-09-06T04:30:00Z,28.9818,-94.9186,1018.11,11111222 
TABS,ioos:station:wmo:42043:1,2016-09-06T05:00:00Z,28.9818,-94.9186,1018.28,11111222 
TABS,ioos:station:wmo:42043:1,2016-09-06T05:30:00Z,28.9818,-94.9186,1018.44,11111222 
TABS,ioos:station:wmo:42043:1,2016-09-06T06:00:00Z,28.9818,-94.9186,1018.38,11111222 
TABS,ioos:station:wmo:42043:1,2016-09-06T06:30:00Z,28.9818,-94.9186,1018.14,11111222 
TABS,ioos:station:wmo:42043:1,2016-09-06T07:00:00Z,28.9818,-94.9186,1017.62,11111222 
TABS,ioos:station:wmo:42043:1,2016-09-06T07:30:00Z,28.9818,-94.9186,1018.09,11111222 
TABS,ioos:station:wmo:42043:1,2016-09-06T08:00:00Z,28.9818,-94.9186,1017.69,11111222 
TABS,ioos:station:wmo:42043:1,2016-09-06T08:30:00Z,28.9818,-94.9186,1017.86,11111222 
TABS,ioos:station:wmo:42043:1,2016-09-06T09:00:00Z,28.9818,-94.9186,1017.97,11111222 
TABS,ioos:station:wmo:42043:1,2016-09-06T09:30:00Z,28.9818,-94.9186,1017.99,11111222 
TABS,ioos:station:wmo:42043:1,2016-09-06T10:00:00Z,28.9818,-94.9186,1018.07,11111222 
TABS,ioos:station:wmo:42043:1,2016-09-06T10:30:00Z,28.9818,-94.9186,1018.35,11111222 
TABS,ioos:station:wmo:42043:1,2016-09-06T11:00:00Z,28.9818,-94.9186,1018.61,11111222 
TABS,ioos:station:wmo:42043:1,2016-09-06T11:30:00Z,28.9818,-94.9186,1018.55,11111222 
TABS,ioos:station:wmo:42043:1,2016-09-06T12:00:00Z,28.9818,-94.9186,1018.77,11111222 
TABS,ioos:station:wmo:42043:1,2016-09-06T12:30:00Z,28.9818,-94.9186,1019.12,11111222 
TABS,ioos:station:wmo:42043:1,2016-09-06T13:00:00Z,28.9818,-94.9186,1019.3,11111222 
TABS,ioos:station:wmo:42043:1,2016-09-06T13:30:00Z,28.9818,-94.9186,1019.57,11111222 
TABS,ioos:station:wmo:42043:1,2016-09-06T14:00:00Z,28.9818,-94.9186,1019.65,11111222 
TABS,ioos:station:wmo:42043:1,2016-09-06T14:30:00Z,28.9818,-94.9186,1019.98,11111222 
TABS,ioos:station:wmo:42043:1,2016-09-06T15:00:00Z,28.9818,-94.9186,1020.26,11111222 
TABS,ioos:station:wmo:42043:1,2016-09-06T15:30:00Z,28.9818,-94.9186,1020.51,11111222 
TABS,ioos:station:wmo:42043:1,2016-09-06T16:00:00Z,28.9818,-94.9186,1020.67,11111222 
TABS,ioos:station:wmo:42043:1,2016-09-06T16:30:00Z,28.9818,-94.9186,1020.91,11111222 
TABS,ioos:station:wmo:42043:1,2016-09-06T17:00:00Z,28.9818,-94.9186,1020.79,11111222 
TABS,ioos:station:wmo:42043:1,2016-09-06T17:30:00Z,28.9818,-94.9186,1020.46,11111222 
TABS,ioos:station:wmo:42043:1,2016-09-06T18:00:00Z,28.9818,-94.9186,1020.35,11111222 
TABS,ioos:station:wmo:42043:1,2016-09-06T18:30:00Z,28.9818,-94.9186,1020.37,11111222 
TABS,ioos:station:wmo:42043:1,2016-09-06T19:00:00Z,28.9818,-94.9186,1020.09,11111222 
TABS,ioos:station:wmo:42043:1,2016-09-06T19:30:00Z,28.9818,-94.9186,1019.72,11111222 
TABS,ioos:station:wmo:42043:1,2016-09-06T20:00:00Z,28.9818,-94.9186,1019.43,11111222 
TABS,ioos:station:wmo:42043:1,2016-09-06T20:30:00Z,28.9818,-94.9186,1019.02,11111222 
TABS,ioos:station:wmo:42043:1,2016-09-06T21:00:00Z,28.9818,-94.9186,1018.79,11111222 
TABS,ioos:station:wmo:42043:1,2016-09-06T21:30:00Z,28.9818,-94.9186,1018.76,11111222 
TABS,ioos:station:wmo:42043:1,2016-09-06T22:00:00Z,28.9818,-94.9186,1018.84,11111222 
TABS,ioos:station:wmo:42043:1,2016-09-06T22:30:00Z,28.9818,-94.9186,1018.92,11111222 